TimeCDT,TemperatureF,Dew PointF,Humidity,Sea Level PressureIn,VisibilityMPH,Wind Direction,Wind SpeedMPH,Gust SpeedMPH,PrecipitationIn,Events,Conditions,WindDirDegrees,DateUTC
12:53 AM,64.9,62.1,90,29.84,10.0,South,5.8,-,N/A,,Clear,190,2012-10-24 05:53:00
1:53 AM,64.0,62.1,93,29.84,10.0,South,6.9,-,N/A,,Clear,170,2012-10-24 06:53:00
2:53 AM,64.9,62.1,90,29.84,10.0,South,8.1,-,N/A,,Partly Cloudy,190,2012-10-24 07:53:00
3:53 AM,64.9,61.0,87,29.85,10.0,South,8.1,-,N/A,,Mostly Cloudy,190,2012-10-24 08:53:00
4:53 AM,64.9,59.0,81,29.85,10.0,South,8.1,-,N/A,,Mostly Cloudy,190,2012-10-24 09:53:00
5:53 AM,64.9,59.0,81,29.86,10.0,South,9.2,-,N/A,,Overcast,190,2012-10-24 10:53:00
6:53 AM,64.0,59.0,84,29.87,10.0,South,9.2,-,N/A,,Mostly Cloudy,190,2012-10-24 11:53:00
7:53 AM,64.9,60.1,84,29.87,10.0,South,10.4,-,N/A,,Clear,180,2012-10-24 12:53:00
8:53 AM,66.9,61.0,81,29.88,10.0,South,12.7,-,N/A,,Clear,190,2012-10-24 13:53:00
9:53 AM,69.8,62.6,78,29.88,10.0,SSW,15.0,-,N/A,,Clear,200,2012-10-24 14:53:00
10:53 AM,75.0,63.0,66,29.87,10.0,SSW,13.8,-,N/A,,Clear,210,2012-10-24 15:53:00
11:25 AM,73.4,62.6,69,29.88,10.0,SSW,16.1,-,N/A,,Mostly Cloudy,210,2012-10-24 16:25:00
11:53 AM,75.0,64.0,69,29.86,10.0,SSW,15.0,-,N/A,,Mostly Cloudy,200,2012-10-24 16:53:00
12:03 PM,75.2,64.4,69,29.87,10.0,SSW,11.5,21.9,N/A,,Mostly Cloudy,210,2012-10-24 17:03:00
12:53 PM,78.1,64.0,62,29.83,10.0,SSW,18.4,-,N/A,,Clear,200,2012-10-24 17:53:00
1:53 PM,79.0,64.9,62,29.81,10.0,South,15.0,21.9,N/A,,Clear,180,2012-10-24 18:53:00
2:53 PM,81.0,66.0,60,29.78,10.0,South,18.4,25.3,N/A,,Partly Cloudy,170,2012-10-24 19:53:00
3:53 PM,80.6,66.2,61,29.79,10.0,South,18.4,27.6,N/A,,Clear,190,2012-10-24 20:53:00
4:53 PM,78.1,66.0,66,29.77,10.0,South,19.6,26.5,N/A,,Clear,190,2012-10-24 21:53:00
5:53 PM,77.0,64.9,66,29.77,10.0,South,15.0,-,N/A,,Clear,190,2012-10-24 22:53:00
6:53 PM,75.0,64.0,69,29.77,10.0,South,13.8,-,N/A,,Clear,180,2012-10-24 23:53:00
7:53 PM,75.0,64.0,69,29.77,10.0,South,15.0,-,N/A,,Clear,180,2012-10-25 00:53:00
8:53 PM,73.9,64.0,71,29.77,10.0,South,15.0,21.9,N/A,,Clear,180,2012-10-25 01:53:00
9:53 PM,73.9,63.0,68,29.77,10.0,South,15.0,23.0,N/A,,Clear,190,2012-10-25 02:53:00
10:53 PM,72.0,63.0,73,29.76,10.0,South,13.8,-,N/A,,Clear,190,2012-10-25 03:53:00
11:53 PM,72.0,62.1,71,29.75,10.0,South,15.0,-,N/A,,Clear,190,2012-10-25 04:53:00